Time,TemperatureF,DewpointF,PressureIn,WindDirection,WindDirectionDegrees,WindSpeedMPH,WindSpeedGustMPH,Humidity,HourlyPrecipIn,Conditions,Clouds,dailyrainin,SoftwareType,DateUTC
2013-04-26 00:00:00,38.4,27.3,30.27,West,262,0.0,0.0,64,0.00,,,0.00,Wunderground v.1.15,2013-04-26 05:00:00,
2013-04-26 00:05:00,38.3,27.2,30.27,West,262,0.0,0.0,64,0.00,,,0.00,Wunderground v.1.15,2013-04-26 05:05:00,
2013-04-26 00:10:00,38.2,27.1,30.27,West,262,0.0,0.0,64,0.00,,,0.00,Wunderground v.1.15,2013-04-26 05:10:00,
2013-04-26 00:15:00,38.1,27.4,30.26,West,262,0.0,0.0,65,0.00,,,0.00,Wunderground v.1.15,2013-04-26 05:15:00,
2013-04-26 00:20:00,38.0,27.3,30.27,West,262,0.0,0.0,65,0.00,,,0.00,Wunderground v.1.15,2013-04-26 05:20:00,
2013-04-26 00:25:00,37.9,26.4,30.26,WSW,247,0.0,0.0,63,0.00,,,0.00,Wunderground v.1.15,2013-04-26 05:25:00,
2013-04-26 00:30:00,38.0,26.1,30.27,WSW,247,0.0,1.0,62,0.00,,,0.00,Wunderground v.1.15,2013-04-26 05:30:00,
2013-04-26 00:35:00,38.1,26.6,30.26,WSW,246,0.0,1.0,63,0.00,,,0.00,Wunderground v.1.15,2013-04-26 05:35:00,
2013-04-26 00:40:00,38.1,26.2,30.26,WSW,246,0.0,0.0,62,0.00,,,0.00,Wunderground v.1.15,2013-04-26 05:40:00,
2013-04-26 00:45:00,38.2,25.9,30.26,SSW,207,0.0,0.0,61,0.00,,,0.00,Wunderground v.1.15,2013-04-26 05:45:00,
2013-04-26 00:50:00,38.4,25.7,30.26,SSW,205,1.0,1.0,60,0.00,,,0.00,Wunderground v.1.15,2013-04-26 05:50:00,
2013-04-26 00:55:00,38.7,25.2,30.26,South,190,1.0,1.0,58,0.00,,,0.00,Wunderground v.1.15,2013-04-26 05:55:00,
2013-04-26 01:00:00,39.1,25.6,30.26,South,186,1.0,4.0,58,0.00,,,0.00,Wunderground v.1.15,2013-04-26 06:00:00,
2013-04-26 01:05:00,39.5,25.9,30.26,SSW,192,1.0,4.0,58,0.00,,,0.00,Wunderground v.1.15,2013-04-26 06:05:00,
2013-04-26 01:09:00,40.0,26.0,30.26,South,178,1.0,1.0,57,0.00,,,0.00,Wunderground v.1.15,2013-04-26 06:09:00,
2013-04-26 01:14:00,40.2,25.7,30.26,SSW,205,1.0,2.0,56,0.00,,,0.00,Wunderground v.1.15,2013-04-26 06:14:00,
2013-04-26 01:19:00,40.5,26.0,30.26,South,181,2.0,2.0,56,0.00,,,0.00,Wunderground v.1.15,2013-04-26 06:19:00,
2013-04-26 01:24:00,40.6,25.7,30.25,South,173,2.0,2.0,55,0.00,,,0.00,Wunderground v.1.15,2013-04-26 06:24:00,
2013-04-26 01:29:00,40.6,26.1,30.25,South,189,1.0,1.0,56,0.00,,,0.00,Wunderground v.1.15,2013-04-26 06:29:00,
2013-04-26 01:34:00,40.6,25.7,30.25,SSW,206,1.0,1.0,55,0.00,,,0.00,Wunderground v.1.15,2013-04-26 06:34:00,
2013-04-26 01:40:00,40.6,25.7,30.25,SSW,196,1.0,1.0,55,0.00,,,0.00,Wunderground v.1.15,2013-04-26 06:40:00,
2013-04-26 01:45:00,40.6,25.7,30.25,SSW,207,2.0,2.0,55,0.00,,,0.00,Wunderground v.1.15,2013-04-26 06:45:00,
2013-04-26 01:50:00,40.6,25.7,30.25,South,186,1.0,4.0,55,0.00,,,0.00,Wunderground v.1.15,2013-04-26 06:50:00,
2013-04-26 01:55:00,40.7,25.8,30.25,SSW,206,2.0,4.0,55,0.00,,,0.00,Wunderground v.1.15,2013-04-26 06:55:00,
2013-04-26 02:00:00,40.6,25.7,30.25,SSW,202,2.0,2.0,55,0.00,,,0.00,Wunderground v.1.15,2013-04-26 07:00:00,
2013-04-26 02:09:00,40.8,25.4,30.25,SSW,211,2.0,5.0,54,0.00,,,0.00,Wunderground v.1.15,2013-04-26 07:09:00,
2013-04-26 02:15:00,40.8,25.9,30.25,SSE,164,2.0,5.0,55,0.00,,,0.00,Wunderground v.1.15,2013-04-26 07:15:00,
2013-04-26 02:20:00,40.8,25.4,30.25,SSW,207,2.0,2.0,54,0.00,,,0.00,Wunderground v.1.15,2013-04-26 07:20:00,
2013-04-26 02:25:00,40.7,25.8,30.24,South,189,2.0,2.0,55,0.00,,,0.00,Wunderground v.1.15,2013-04-26 07:25:00,
2013-04-26 02:30:00,40.7,25.8,30.24,South,184,2.0,2.0,55,0.00,,,0.00,Wunderground v.1.15,2013-04-26 07:30:00,
2013-04-26 02:35:00,40.7,25.8,30.25,SSW,205,2.0,2.0,55,0.00,,,0.00,Wunderground v.1.15,2013-04-26 07:35:00,
2013-04-26 02:40:00,40.7,25.3,30.25,South,185,3.0,3.0,54,0.00,,,0.00,Wunderground v.1.15,2013-04-26 07:40:00,
2013-04-26 02:45:00,40.8,25.4,30.25,SSW,201,4.0,4.0,54,0.00,,,0.00,Wunderground v.1.15,2013-04-26 07:45:00,
2013-04-26 02:50:00,40.8,25.9,30.25,South,186,4.0,4.0,55,0.00,,,0.00,Wunderground v.1.15,2013-04-26 07:50:00,
2013-04-26 02:55:00,40.7,25.8,30.24,SSW,213,4.0,8.0,55,0.00,,,0.00,Wunderground v.1.15,2013-04-26 07:55:00,
2013-04-26 03:00:00,40.7,25.8,30.24,South,176,4.0,4.0,55,0.00,,,0.00,Wunderground v.1.15,2013-04-26 08:00:00,
2013-04-26 04:30:00,40.5,26.4,30.26,SW,215,4.0,6.0,57,0.00,,,0.00,Wunderground v.1.15,2013-04-26 09:30:00,
2013-04-26 04:35:00,40.5,26.9,30.25,SSW,196,3.0,6.0,58,0.00,,,0.00,Wunderground v.1.15,2013-04-26 09:35:00,
2013-04-26 04:40:00,40.5,26.9,30.25,South,190,3.0,3.0,58,0.00,,,0.00,Wunderground v.1.15,2013-04-26 09:40:00,
2013-04-26 04:45:00,40.4,26.8,30.24,South,180,3.0,3.0,58,0.00,,,0.00,Wunderground v.1.15,2013-04-26 09:45:00,
2013-04-26 04:50:00,40.3,27.1,30.24,South,170,3.0,3.0,59,0.00,,,0.00,Wunderground v.1.15,2013-04-26 09:50:00,
2013-04-26 04:55:00,40.2,27.4,30.23,SSE,163,3.0,3.0,60,0.00,,,0.00,Wunderground v.1.15,2013-04-26 09:55:00,
2013-04-26 05:00:00,40.2,27.4,30.22,SSE,153,4.0,6.0,60,0.00,,,0.00,Wunderground v.1.15,2013-04-26 10:00:00,
2013-04-26 05:04:00,40.5,27.7,30.22,SSE,157,5.0,6.0,60,0.00,,,0.00,Wunderground v.1.15,2013-04-26 10:04:00,
2013-04-26 05:09:00,40.7,27.9,30.22,SSW,213,6.0,6.0,60,0.00,,,0.00,Wunderground v.1.15,2013-04-26 10:09:00,
2013-04-26 05:14:00,41.1,28.3,30.23,SSW,204,6.0,6.0,60,0.00,,,0.00,Wunderground v.1.15,2013-04-26 10:14:00,
2013-04-26 05:19:00,41.2,27.9,30.23,SSW,198,5.0,5.0,59,0.00,,,0.00,Wunderground v.1.15,2013-04-26 10:19:00,
2013-04-26 05:25:00,41.2,27.9,30.24,SSW,213,4.0,5.0,59,0.00,,,0.00,Wunderground v.1.15,2013-04-26 10:25:00,
2013-04-26 05:30:00,41.1,27.9,30.24,South,177,3.0,3.0,59,0.00,,,0.00,Wunderground v.1.15,2013-04-26 10:30:00,
2013-04-26 05:35:00,41.2,27.9,30.24,South,170,3.0,7.0,59,0.00,,,0.00,Wunderground v.1.15,2013-04-26 10:35:00,
2013-04-26 05:40:00,41.4,28.5,30.25,SSW,198,4.0,4.0,60,0.00,,,0.00,Wunderground v.1.15,2013-04-26 10:40:00,
2013-04-26 05:45:00,41.4,28.1,30.24,SSW,207,4.0,4.0,59,0.00,,,0.00,Wunderground v.1.15,2013-04-26 10:45:00,
2013-04-26 05:50:00,41.5,28.6,30.25,SSW,200,4.0,4.0,60,0.00,,,0.00,Wunderground v.1.15,2013-04-26 10:50:00,
2013-04-26 05:55:00,41.4,28.5,30.24,South,176,3.0,4.0,60,0.00,,,0.00,Wunderground v.1.15,2013-04-26 10:55:00,
2013-04-26 06:00:00,41.3,28.9,30.24,South,169,2.0,5.0,61,0.00,,,0.00,Wunderground v.1.15,2013-04-26 11:00:00,
2013-04-26 06:05:00,41.3,28.9,30.25,South,186,3.0,5.0,61,0.00,,,0.00,Wunderground v.1.15,2013-04-26 11:05:00,
2013-04-26 06:10:00,41.3,28.9,30.25,SSE,163,3.0,4.0,61,0.00,,,0.00,Wunderground v.1.15,2013-04-26 11:10:00,
2013-04-26 06:15:00,41.4,29.3,30.25,South,173,4.0,4.0,62,0.00,,,0.00,Wunderground v.1.15,2013-04-26 11:15:00,
2013-04-26 06:20:00,41.6,29.5,30.25,SSE,158,5.0,5.0,62,0.00,,,0.00,Wunderground v.1.15,2013-04-26 11:20:00,
2013-04-26 06:25:00,41.7,29.6,30.25,SSW,192,5.0,5.0,62,0.00,,,0.00,Wunderground v.1.15,2013-04-26 11:25:00,
2013-04-26 06:30:00,41.7,29.6,30.25,SE,144,5.0,5.0,62,0.00,,,0.00,Wunderground v.1.15,2013-04-26 11:30:00,
2013-04-26 06:35:00,41.6,29.9,30.25,South,181,3.0,7.0,63,0.00,,,0.00,Wunderground v.1.15,2013-04-26 11:35:00,
2013-04-26 06:40:00,41.6,29.9,30.25,South,170,3.0,3.0,63,0.00,,,0.00,Wunderground v.1.15,2013-04-26 11:40:00,
2013-04-26 06:45:00,41.7,30.4,30.24,South,191,3.0,3.0,64,0.00,,,0.00,Wunderground v.1.15,2013-04-26 11:45:00,
2013-04-26 06:50:00,41.7,30.4,30.24,South,186,4.0,4.0,64,0.00,,,0.00,Wunderground v.1.15,2013-04-26 11:50:00,
2013-04-26 06:55:00,41.8,30.5,30.24,SE,142,4.0,4.0,64,0.00,,,0.00,Wunderground v.1.15,2013-04-26 11:55:00,
2013-04-26 07:00:00,42.0,31.1,30.24,South,184,2.0,2.0,65,0.00,,,0.00,Wunderground v.1.15,2013-04-26 12:00:00,
2013-04-26 07:05:00,42.1,31.2,30.24,South,178,2.0,2.0,65,0.00,,,0.00,Wunderground v.1.15,2013-04-26 12:05:00,
2013-04-26 07:09:00,42.3,31.4,30.24,SSE,162,2.0,2.0,65,0.00,,,0.00,Wunderground v.1.15,2013-04-26 12:09:00,
2013-04-26 07:14:00,42.7,31.7,30.24,SSW,210,2.0,2.0,65,0.00,,,0.00,Wunderground v.1.15,2013-04-26 12:14:00,
2013-04-26 07:19:00,43.0,31.6,30.23,SSW,196,3.0,3.0,64,0.00,,,0.00,Wunderground v.1.15,2013-04-26 12:19:00,
2013-04-26 07:24:00,43.3,32.3,30.23,South,188,3.0,7.0,65,0.00,,,0.00,Wunderground v.1.15,2013-04-26 12:24:00,
2013-04-26 07:30:00,43.6,32.2,30.23,SSW,200,4.0,4.0,64,0.00,,,0.00,Wunderground v.1.15,2013-04-26 12:30:00,
2013-04-26 07:35:00,43.8,32.4,30.23,SSW,198,5.0,7.0,64,0.00,,,0.00,Wunderground v.1.15,2013-04-26 12:35:00,
2013-04-26 07:40:00,44.0,32.6,30.23,SSE,167,4.0,5.0,64,0.00,,,0.00,Wunderground v.1.15,2013-04-26 12:40:00,
2013-04-26 07:45:00,44.4,33.0,30.23,South,186,4.0,5.0,64,0.00,,,0.00,Wunderground v.1.15,2013-04-26 12:45:00,
2013-04-26 07:50:00,45.0,33.2,30.23,SSW,211,5.0,5.0,63,0.00,,,0.00,Wunderground v.1.15,2013-04-26 12:50:00,
2013-04-26 07:55:00,45.4,33.5,30.23,South,169,5.0,5.0,63,0.00,,,0.00,Wunderground v.1.15,2013-04-26 12:55:00,
2013-04-26 08:00:00,45.8,33.9,30.23,South,179,5.0,5.0,63,0.00,,,0.00,Wunderground v.1.15,2013-04-26 13:00:00,
2013-04-26 08:10:00,46.9,34.6,30.23,South,188,3.0,3.0,62,0.00,,,0.00,Wunderground v.1.15,2013-04-26 13:10:00,
2013-04-26 08:15:00,47.5,34.7,30.23,SSW,207,2.0,3.0,61,0.00,,,0.00,Wunderground v.1.15,2013-04-26 13:15:00,
2013-04-26 08:20:00,48.1,35.3,30.22,SSW,202,2.0,5.0,61,0.00,,,0.00,Wunderground v.1.15,2013-04-26 13:20:00,
2013-04-26 08:25:00,48.6,34.9,30.22,SSW,199,3.0,5.0,59,0.00,,,0.00,Wunderground v.1.15,2013-04-26 13:25:00,
2013-04-26 08:30:00,48.9,35.2,30.22,SSW,208,5.0,5.0,59,0.00,,,0.00,Wunderground v.1.15,2013-04-26 13:30:00,
2013-04-26 08:34:00,49.3,34.7,30.22,South,176,5.0,5.0,57,0.00,,,0.00,Wunderground v.1.15,2013-04-26 13:34:00,
2013-04-26 08:40:00,49.7,35.1,30.23,South,180,4.0,7.0,57,0.00,,,0.00,Wunderground v.1.15,2013-04-26 13:40:00,
2013-04-26 08:45:00,49.9,35.3,30.23,SSW,193,5.0,7.0,57,0.00,,,0.00,Wunderground v.1.15,2013-04-26 13:45:00,
2013-04-26 08:50:00,50.0,35.4,30.23,South,178,5.0,7.0,57,0.00,,,0.00,Wunderground v.1.15,2013-04-26 13:50:00,
2013-04-26 08:55:00,50.0,35.4,30.23,SSW,205,7.0,7.0,57,0.00,,,0.00,Wunderground v.1.15,2013-04-26 13:55:00,
2013-04-26 09:00:00,50.1,35.9,30.22,SSW,211,8.0,8.0,58,0.00,,,0.00,Wunderground v.1.15,2013-04-26 14:00:00,
2013-04-26 09:05:00,50.5,36.3,30.22,SSW,213,6.0,13.0,58,0.00,,,0.00,Wunderground v.1.15,2013-04-26 14:05:00,
2013-04-26 09:10:00,51.0,36.3,30.22,South,191,7.0,13.0,57,0.00,,,0.00,Wunderground v.1.15,2013-04-26 14:10:00,
2013-04-26 09:15:00,51.7,36.5,30.21,South,190,8.0,13.0,56,0.00,,,0.00,Wunderground v.1.15,2013-04-26 14:15:00,
2013-04-26 09:20:00,52.3,37.5,30.21,SSE,167,9.0,10.0,57,0.00,,,0.00,Wunderground v.1.15,2013-04-26 14:20:00,
2013-04-26 09:25:00,52.9,37.2,30.21,SSW,207,10.0,10.0,55,0.00,,,0.00,Wunderground v.1.15,2013-04-26 14:25:00,
2013-04-26 09:30:00,53.5,37.3,30.21,ESE,113,10.0,10.0,54,0.00,,,0.00,Wunderground v.1.15,2013-04-26 14:30:00,
2013-04-26 09:35:00,53.9,38.6,30.21,South,174,10.0,10.0,56,0.00,,,0.00,Wunderground v.1.15,2013-04-26 14:35:00,
2013-04-26 09:39:00,54.5,38.2,30.20,SSW,200,9.0,9.0,54,0.00,,,0.00,Wunderground v.1.15,2013-04-26 14:39:00,
2013-04-26 09:44:00,55.0,38.2,30.20,SW,227,8.0,14.0,53,0.00,,,0.00,Wunderground v.1.15,2013-04-26 14:44:00,
2013-04-26 09:49:00,55.7,38.8,30.20,SSW,195,8.0,18.0,53,0.00,,,0.00,Wunderground v.1.15,2013-04-26 14:49:00,
2013-04-26 09:54:00,56.2,38.3,30.20,SW,215,9.0,18.0,51,0.00,,,0.00,Wunderground v.1.15,2013-04-26 14:54:00,
2013-04-26 10:00:00,56.7,39.3,30.20,SSW,194,10.0,10.0,52,0.00,,,0.00,Wunderground v.1.15,2013-04-26 15:00:00,
2013-04-26 10:04:00,56.7,39.3,30.20,SSW,204,11.0,11.0,52,0.00,,,0.00,Wunderground v.1.15,2013-04-26 15:04:00,
2013-04-26 10:10:00,56.7,39.3,30.20,SSE,155,10.0,10.0,52,0.00,,,0.00,Wunderground v.1.15,2013-04-26 15:10:00,
2013-04-26 10:15:00,56.5,38.6,30.20,SSW,212,9.0,10.0,51,0.00,,,0.00,Wunderground v.1.15,2013-04-26 15:15:00,
2013-04-26 10:20:00,56.8,39.4,30.20,SSE,161,9.0,9.0,52,0.00,,,0.00,Wunderground v.1.15,2013-04-26 15:20:00,
2013-04-26 10:25:00,57.4,40.4,30.20,South,189,8.0,9.0,53,0.00,,,0.00,Wunderground v.1.15,2013-04-26 15:25:00,
2013-04-26 10:30:00,57.6,39.6,30.20,SSW,201,9.0,9.0,51,0.00,,,0.00,Wunderground v.1.15,2013-04-26 15:30:00,
2013-04-26 10:35:00,57.8,39.8,30.20,SW,225,10.0,11.0,51,0.00,,,0.00,Wunderground v.1.15,2013-04-26 15:35:00,
2013-04-26 10:45:00,58.0,39.5,30.20,South,173,9.0,20.0,50,0.00,,,0.00,Wunderground v.1.15,2013-04-26 15:45:00,
2013-04-26 10:50:00,58.1,39.5,30.20,South,180,10.0,12.0,50,0.00,,,0.00,Wunderground v.1.15,2013-04-26 15:50:00,
2013-04-26 10:55:00,58.3,39.7,30.20,South,175,10.0,13.0,50,0.00,,,0.00,Wunderground v.1.15,2013-04-26 15:55:00,
2013-04-26 11:00:00,57.9,39.4,30.20,SSW,207,10.0,10.0,50,0.00,,,0.00,Wunderground v.1.15,2013-04-26 16:00:00,
2013-04-26 11:05:00,58.2,40.6,30.20,SSW,202,9.0,16.0,52,0.00,,,0.00,Wunderground v.1.15,2013-04-26 16:05:00,
2013-04-26 11:10:00,59.0,41.4,30.20,SW,233,8.0,9.0,52,0.00,,,0.00,Wunderground v.1.15,2013-04-26 16:10:00,
2013-04-26 11:15:00,59.0,40.9,30.20,South,187,10.0,10.0,51,0.00,,,0.00,Wunderground v.1.15,2013-04-26 16:15:00,
2013-04-26 11:20:00,59.4,40.7,30.20,SW,217,9.0,11.0,50,0.00,,,0.00,Wunderground v.1.15,2013-04-26 16:20:00,
2013-04-26 11:29:00,60.3,41.6,30.20,SE,146,9.0,9.0,50,0.00,,,0.00,Wunderground v.1.15,2013-04-26 16:29:00,
2013-04-26 11:34:00,60.5,41.8,30.20,South,185,9.0,9.0,50,0.00,,,0.00,Wunderground v.1.15,2013-04-26 16:34:00,
2013-04-26 11:40:00,60.9,41.6,30.20,SSW,198,9.0,9.0,49,0.00,,,0.00,Wunderground v.1.15,2013-04-26 16:40:00,
2013-04-26 11:45:00,60.8,42.0,30.20,South,169,10.0,20.0,50,0.00,,,0.00,Wunderground v.1.15,2013-04-26 16:45:00,
2013-04-26 11:50:00,61.1,43.3,30.20,SW,221,10.0,14.0,52,0.00,,,0.00,Wunderground v.1.15,2013-04-26 16:50:00,
2013-04-26 11:55:00,61.5,41.6,30.20,WSW,254,10.0,14.0,48,0.00,,,0.00,Wunderground v.1.15,2013-04-26 16:55:00,
2013-04-26 12:00:00,61.9,42.0,30.20,SW,234,10.0,10.0,48,0.00,,,0.00,Wunderground v.1.15,2013-04-26 17:00:00,
2013-04-26 12:04:00,61.8,42.4,30.20,West,271,9.0,10.0,49,0.00,,,0.00,Wunderground v.1.15,2013-04-26 17:04:00,
2013-04-26 12:09:00,61.7,42.3,30.20,SSW,211,11.0,12.0,49,0.00,,,0.00,Wunderground v.1.15,2013-04-26 17:09:00,
2013-04-26 12:14:00,61.9,42.5,30.20,SE,140,10.0,12.0,49,0.00,,,0.00,Wunderground v.1.15,2013-04-26 17:14:00,
2013-04-26 12:20:00,62.1,42.2,30.20,SSW,192,9.0,9.0,48,0.00,,,0.00,Wunderground v.1.15,2013-04-26 17:20:00,
2013-04-26 12:25:00,62.1,42.7,30.19,South,185,9.0,9.0,49,0.00,,,0.00,Wunderground v.1.15,2013-04-26 17:25:00,
2013-04-26 12:30:00,62.1,42.7,30.19,SSE,161,10.0,10.0,49,0.00,,,0.00,Wunderground v.1.15,2013-04-26 17:30:00,
2013-04-26 12:35:00,62.0,42.6,30.19,South,182,10.0,10.0,49,0.00,,,0.00,Wunderground v.1.15,2013-04-26 17:35:00,
2013-04-26 12:40:00,62.1,43.7,30.19,South,169,10.0,10.0,51,0.00,,,0.00,Wunderground v.1.15,2013-04-26 17:40:00,
2013-04-26 12:45:00,62.4,43.0,30.18,South,184,8.0,14.0,49,0.00,,,0.00,Wunderground v.1.15,2013-04-26 17:45:00,
2013-04-26 12:50:00,62.8,43.3,30.18,SW,220,9.0,15.0,49,0.00,,,0.00,Wunderground v.1.15,2013-04-26 17:50:00,
2013-04-26 12:55:00,63.0,43.5,30.18,SSW,196,9.0,15.0,49,0.00,,,0.00,Wunderground v.1.15,2013-04-26 17:55:00,
2013-04-26 13:00:00,63.6,44.6,30.18,South,173,8.0,11.0,50,0.00,,,0.00,Wunderground v.1.15,2013-04-26 18:00:00,
2013-04-26 13:05:00,63.6,45.1,30.17,SSW,211,9.0,11.0,51,0.00,,,0.00,Wunderground v.1.15,2013-04-26 18:05:00,
2013-04-26 13:10:00,63.8,43.7,30.17,SW,228,11.0,12.0,48,0.00,,,0.00,Wunderground v.1.15,2013-04-26 18:10:00,
2013-04-26 13:15:00,64.0,43.9,30.17,WSW,258,9.0,12.0,48,0.00,,,0.00,Wunderground v.1.15,2013-04-26 18:15:00,
2013-04-26 13:20:00,64.7,44.0,30.17,WSW,247,8.0,11.0,47,0.00,,,0.00,Wunderground v.1.15,2013-04-26 18:20:00,
2013-04-26 13:25:00,64.7,44.0,30.16,WSW,246,8.0,11.0,47,0.00,,,0.00,Wunderground v.1.15,2013-04-26 18:25:00,
2013-04-26 13:30:00,64.9,44.7,30.16,SW,224,8.0,14.0,48,0.00,,,0.00,Wunderground v.1.15,2013-04-26 18:30:00,
2013-04-26 13:35:00,65.1,44.4,30.16,WSW,250,7.0,14.0,47,0.00,,,0.00,Wunderground v.1.15,2013-04-26 18:35:00,
2013-04-26 13:40:00,65.6,45.4,30.16,WSW,244,7.0,7.0,48,0.00,,,0.00,Wunderground v.1.15,2013-04-26 18:40:00,
2013-04-26 13:45:00,65.8,44.4,30.16,SSW,210,7.0,15.0,46,0.00,,,0.00,Wunderground v.1.15,2013-04-26 18:45:00,
2013-04-26 13:50:00,65.5,45.3,30.16,SSW,198,8.0,14.0,48,0.00,,,0.00,Wunderground v.1.15,2013-04-26 18:50:00,
2013-04-26 13:55:00,65.9,45.1,30.16,West,265,8.0,14.0,47,0.00,,,0.00,Wunderground v.1.15,2013-04-26 18:55:00,
2013-04-26 14:00:00,66.2,44.8,30.16,SSW,213,8.0,9.0,46,0.00,,,0.00,Wunderground v.1.15,2013-04-26 19:00:00,
2013-04-26 14:09:00,66.6,45.2,30.15,SW,235,8.0,13.0,46,0.00,,,0.00,Wunderground v.1.15,2013-04-26 19:09:00,
2013-04-26 14:15:00,66.7,45.3,30.15,SW,220,8.0,13.0,46,0.00,,,0.00,Wunderground v.1.15,2013-04-26 19:15:00,
2013-04-26 14:20:00,66.4,46.1,30.15,NW,306,9.0,9.0,48,0.00,,,0.00,Wunderground v.1.15,2013-04-26 19:20:00,
2013-04-26 14:24:00,66.6,46.3,30.14,SW,215,10.0,10.0,48,0.00,,,0.00,Wunderground v.1.15,2013-04-26 19:24:00,
2013-04-26 14:29:00,67.0,45.5,30.14,SSW,206,9.0,9.0,46,0.00,,,0.00,Wunderground v.1.15,2013-04-26 19:29:00,
2013-04-26 14:34:00,67.6,45.5,30.14,SSE,163,8.0,11.0,45,0.00,,,0.00,Wunderground v.1.15,2013-04-26 19:34:00,
2013-04-26 14:40:00,67.9,45.2,30.14,SW,222,7.0,11.0,44,0.00,,,0.00,Wunderground v.1.15,2013-04-26 19:40:00,
2013-04-26 14:45:00,67.9,45.8,30.14,WSW,241,8.0,11.0,45,0.00,,,0.00,Wunderground v.1.15,2013-04-26 19:45:00,
2013-04-26 14:50:00,67.9,46.3,30.14,WSW,255,9.0,9.0,46,0.00,,,0.00,Wunderground v.1.15,2013-04-26 19:50:00,
2013-04-26 14:55:00,67.7,46.2,30.14,SSW,206,10.0,12.0,46,0.00,,,0.00,Wunderground v.1.15,2013-04-26 19:55:00,
2013-04-26 15:00:00,67.9,46.3,30.14,SSW,209,10.0,10.0,46,0.00,,,0.00,Wunderground v.1.15,2013-04-26 20:00:00,
2013-04-26 15:05:00,68.0,47.0,30.14,SSW,204,9.0,10.0,47,0.00,,,0.00,Wunderground v.1.15,2013-04-26 20:05:00,
2013-04-26 15:10:00,68.2,46.6,30.14,WSW,254,8.0,8.0,46,0.00,,,0.00,Wunderground v.1.15,2013-04-26 20:10:00,
2013-04-26 15:15:00,68.4,47.4,30.14,SW,228,8.0,8.0,47,0.00,,,0.00,Wunderground v.1.15,2013-04-26 20:15:00,
2013-04-26 15:20:00,68.2,46.0,30.14,SSW,209,9.0,9.0,45,0.00,,,0.00,Wunderground v.1.15,2013-04-26 20:20:00,
2013-04-26 15:25:00,67.6,46.6,30.14,SW,220,10.0,10.0,47,0.00,,,0.00,Wunderground v.1.15,2013-04-26 20:25:00,
2013-04-26 15:35:00,66.9,46.6,30.13,WSW,249,11.0,26.0,48,0.00,,,0.00,Wunderground v.1.15,2013-04-26 20:35:00,
2013-04-26 15:40:00,66.7,46.4,30.13,West,281,10.0,10.0,48,0.00,,,0.00,Wunderground v.1.15,2013-04-26 20:40:00,
2013-04-26 15:45:00,66.7,46.9,30.13,South,190,10.0,10.0,49,0.00,,,0.00,Wunderground v.1.15,2013-04-26 20:45:00,
2013-04-26 15:50:00,67.2,47.4,30.13,SW,217,10.0,10.0,49,0.00,,,0.00,Wunderground v.1.15,2013-04-26 20:50:00,
2013-04-26 15:55:00,67.6,47.2,30.13,WNW,292,9.0,10.0,48,0.00,,,0.00,Wunderground v.1.15,2013-04-26 20:55:00,
2013-04-26 16:00:00,67.8,46.8,30.13,NW,311,9.0,9.0,47,0.00,,,0.00,Wunderground v.1.15,2013-04-26 21:00:00,
2013-04-26 16:05:00,67.7,47.3,30.13,SSW,196,9.0,9.0,48,0.00,,,0.00,Wunderground v.1.15,2013-04-26 21:05:00,
2013-04-26 16:10:00,67.3,46.9,30.13,SSW,194,7.0,9.0,48,0.00,,,0.00,Wunderground v.1.15,2013-04-26 21:10:00,
2013-04-26 16:15:00,67.1,46.2,30.13,WSW,253,8.0,14.0,47,0.00,,,0.00,Wunderground v.1.15,2013-04-26 21:15:00,
2013-04-26 16:20:00,67.4,46.5,30.13,SSW,196,9.0,9.0,47,0.00,,,0.00,Wunderground v.1.15,2013-04-26 21:20:00,
2013-04-26 16:29:00,67.4,46.5,30.13,West,272,8.0,10.0,47,0.00,,,0.00,Wunderground v.1.15,2013-04-26 21:29:00,
2013-04-26 16:35:00,67.5,46.0,30.13,SSW,205,8.0,15.0,46,0.00,,,0.00,Wunderground v.1.15,2013-04-26 21:35:00,
2013-04-26 16:40:00,67.1,46.2,30.14,SW,217,8.0,8.0,47,0.00,,,0.00,Wunderground v.1.15,2013-04-26 21:40:00,
2013-04-26 16:45:00,66.7,45.8,30.13,SSW,207,7.0,8.0,47,0.00,,,0.00,Wunderground v.1.15,2013-04-26 21:45:00,
2013-04-26 16:50:00,66.6,46.3,30.13,SSW,195,7.0,7.0,48,0.00,,,0.00,Wunderground v.1.15,2013-04-26 21:50:00,
2013-04-26 16:55:00,67.2,46.3,30.13,SSW,193,6.0,7.0,47,0.00,,,0.00,Wunderground v.1.15,2013-04-26 21:55:00,
2013-04-26 17:00:00,67.6,45.5,30.13,SW,222,6.0,6.0,45,0.00,,,0.00,Wunderground v.1.15,2013-04-26 22:00:00,
2013-04-26 17:05:00,67.7,45.0,30.13,WSW,240,7.0,7.0,44,0.00,,,0.00,Wunderground v.1.15,2013-04-26 22:05:00,
2013-04-26 17:10:00,67.9,45.8,30.13,South,184,7.0,9.0,45,0.00,,,0.00,Wunderground v.1.15,2013-04-26 22:10:00,
2013-04-26 17:15:00,67.4,45.9,30.13,SW,236,9.0,9.0,46,0.00,,,0.00,Wunderground v.1.15,2013-04-26 22:15:00,
2013-04-26 17:20:00,67.1,45.6,30.13,South,172,9.0,9.0,46,0.00,,,0.00,Wunderground v.1.15,2013-04-26 22:20:00,
2013-04-26 17:25:00,66.7,45.3,30.13,WSW,240,9.0,11.0,46,0.00,,,0.00,Wunderground v.1.15,2013-04-26 22:25:00,
2013-04-26 17:30:00,66.8,44.8,30.13,SW,234,8.0,8.0,45,0.00,,,0.00,Wunderground v.1.15,2013-04-26 22:30:00,
2013-04-26 17:40:00,66.7,45.3,30.14,SW,221,8.0,8.0,46,0.00,,,0.00,Wunderground v.1.15,2013-04-26 22:40:00,
2013-04-26 17:44:00,66.5,45.1,30.14,South,190,7.0,10.0,46,0.00,,,0.00,Wunderground v.1.15,2013-04-26 22:44:00,
2013-04-26 17:49:00,66.5,44.5,30.14,SSW,211,6.0,6.0,45,0.00,,,0.00,Wunderground v.1.15,2013-04-26 22:49:00,
2013-04-26 17:55:00,66.0,44.6,30.14,SSE,155,8.0,10.0,46,0.00,,,0.00,Wunderground v.1.15,2013-04-26 22:55:00,
2013-04-26 18:00:00,65.5,44.7,30.14,South,175,9.0,9.0,47,0.00,,,0.00,Wunderground v.1.15,2013-04-26 23:00:00,
2013-04-26 18:05:00,65.2,44.5,30.14,SSW,202,9.0,9.0,47,0.00,,,0.00,Wunderground v.1.15,2013-04-26 23:05:00,
2013-04-26 18:09:00,64.8,44.1,30.14,SSW,212,10.0,13.0,47,0.00,,,0.00,Wunderground v.1.15,2013-04-26 23:09:00,
2013-04-26 18:20:00,64.4,44.3,30.14,South,185,8.0,12.0,48,0.00,,,0.00,Wunderground v.1.15,2013-04-26 23:20:00,
2013-04-26 18:25:00,64.2,44.6,30.14,SW,236,8.0,12.0,49,0.00,,,0.00,Wunderground v.1.15,2013-04-26 23:25:00,
2013-04-26 18:30:00,64.0,45.0,30.15,SSW,212,8.0,9.0,50,0.00,,,0.00,Wunderground v.1.15,2013-04-26 23:30:00,
2013-04-26 18:35:00,63.8,44.8,30.15,SW,217,7.0,10.0,50,0.00,,,0.00,Wunderground v.1.15,2013-04-26 23:35:00,
2013-04-26 18:40:00,63.5,44.5,30.15,SSW,198,8.0,12.0,50,0.00,,,0.00,Wunderground v.1.15,2013-04-26 23:40:00,
2013-04-26 18:45:00,63.2,44.2,30.15,SW,225,10.0,12.0,50,0.00,,,0.00,Wunderground v.1.15,2013-04-26 23:45:00,
2013-04-26 18:50:00,63.1,44.2,30.15,SSW,208,9.0,9.0,50,0.00,,,0.00,Wunderground v.1.15,2013-04-26 23:50:00,
2013-04-26 19:10:00,62.3,44.4,30.15,SSW,204,7.0,7.0,52,0.00,,,0.00,Wunderground v.1.15,2013-04-27 00:10:00,
2013-04-26 19:15:00,62.1,44.8,30.15,SW,215,6.0,7.0,53,0.00,,,0.00,Wunderground v.1.15,2013-04-27 00:15:00,
2013-04-26 19:20:00,61.9,44.6,30.16,South,186,8.0,8.0,53,0.00,,,0.00,Wunderground v.1.15,2013-04-27 00:20:00,
2013-04-26 19:25:00,61.7,44.9,30.16,West,275,7.0,8.0,54,0.00,,,0.00,Wunderground v.1.15,2013-04-27 00:25:00,
2013-04-26 19:29:00,61.5,45.2,30.16,SW,221,5.0,5.0,55,0.00,,,0.00,Wunderground v.1.15,2013-04-27 00:29:00,
2013-04-26 19:34:00,61.3,45.0,30.16,South,186,5.0,5.0,55,0.00,,,0.00,Wunderground v.1.15,2013-04-27 00:34:00,
2013-04-26 19:39:00,61.1,45.3,30.16,West,267,5.0,5.0,56,0.00,,,0.00,Wunderground v.1.15,2013-04-27 00:39:00,
2013-04-26 19:44:00,60.9,45.1,30.17,SSW,213,6.0,6.0,56,0.00,,,0.00,Wunderground v.1.15,2013-04-27 00:44:00,
2013-04-26 19:50:00,60.7,45.4,30.16,SSW,192,4.0,4.0,57,0.00,,,0.00,Wunderground v.1.15,2013-04-27 00:50:00,
2013-04-26 19:55:00,60.5,45.6,30.16,South,190,5.0,10.0,58,0.00,,,0.00,Wunderground v.1.15,2013-04-27 00:55:00,
2013-04-26 20:00:00,60.3,45.5,30.17,SW,215,7.0,7.0,58,0.00,,,0.00,Wunderground v.1.15,2013-04-27 01:00:00,
2013-04-26 20:04:00,60.1,45.3,30.17,WSW,249,6.0,7.0,58,0.00,,,0.00,Wunderground v.1.15,2013-04-27 01:04:00,
2013-04-26 20:09:00,59.9,45.5,30.17,SW,225,5.0,9.0,59,0.00,,,0.00,Wunderground v.1.15,2013-04-27 01:09:00,
2013-04-26 20:14:00,59.7,45.3,30.17,SW,223,5.0,9.0,59,0.00,,,0.00,Wunderground v.1.15,2013-04-27 01:14:00,
2013-04-26 20:19:00,59.6,45.2,30.17,SSW,201,6.0,6.0,59,0.00,,,0.00,Wunderground v.1.15,2013-04-27 01:19:00,
2013-04-26 20:25:00,59.5,45.6,30.17,SSE,168,5.0,6.0,60,0.00,,,0.00,Wunderground v.1.15,2013-04-27 01:25:00,
2013-04-26 20:30:00,59.3,45.4,30.17,SSE,167,4.0,6.0,60,0.00,,,0.00,Wunderground v.1.15,2013-04-27 01:30:00,
2013-04-26 20:35:00,59.0,45.6,30.18,SW,219,5.0,11.0,61,0.00,,,0.00,Wunderground v.1.15,2013-04-27 01:35:00,
2013-04-26 20:40:00,59.0,46.0,30.18,SSW,207,5.0,5.0,62,0.00,,,0.00,Wunderground v.1.15,2013-04-27 01:40:00,
2013-04-26 20:45:00,58.8,45.8,30.19,WSW,240,4.0,5.0,62,0.00,,,0.00,Wunderground v.1.15,2013-04-27 01:45:00,
2013-04-26 20:50:00,58.6,45.6,30.19,SW,223,5.0,10.0,62,0.00,,,0.00,Wunderground v.1.15,2013-04-27 01:50:00,
2013-04-26 20:55:00,58.4,45.4,30.19,South,190,5.0,10.0,62,0.00,,,0.00,Wunderground v.1.15,2013-04-27 01:55:00,
2013-04-26 21:00:00,58.5,45.5,30.19,SSW,197,6.0,6.0,62,0.00,,,0.00,Wunderground v.1.15,2013-04-27 02:00:00,
2013-04-26 21:04:00,58.4,45.4,30.19,SW,221,6.0,7.0,62,0.00,,,0.00,Wunderground v.1.15,2013-04-27 02:04:00,
2013-04-26 21:09:00,58.4,45.4,30.20,SW,214,6.0,6.0,62,0.00,,,0.00,Wunderground v.1.15,2013-04-27 02:09:00,
2013-04-26 21:14:00,58.3,45.3,30.20,South,184,6.0,6.0,62,0.00,,,0.00,Wunderground v.1.15,2013-04-27 02:14:00,
2013-04-26 21:19:00,58.3,45.3,30.20,SW,218,5.0,10.0,62,0.00,,,0.00,Wunderground v.1.15,2013-04-27 02:19:00,
2013-04-26 21:24:00,58.2,45.2,30.20,SSW,206,4.0,10.0,62,0.00,,,0.00,Wunderground v.1.15,2013-04-27 02:24:00,
2013-04-26 21:30:00,58.0,45.5,30.20,South,170,4.0,5.0,63,0.00,,,0.00,Wunderground v.1.15,2013-04-27 02:30:00,
2013-04-26 21:35:00,57.8,45.7,30.20,SSE,166,3.0,5.0,64,0.00,,,0.00,Wunderground v.1.15,2013-04-27 02:35:00,
2013-04-26 21:40:00,57.8,45.7,30.21,South,169,5.0,8.0,64,0.00,,,0.00,Wunderground v.1.15,2013-04-27 02:40:00,
2013-04-26 21:45:00,57.7,45.6,30.21,SW,218,6.0,10.0,64,0.00,,,0.00,Wunderground v.1.15,2013-04-27 02:45:00,
2013-04-26 21:50:00,57.7,45.6,30.21,South,189,6.0,6.0,64,0.00,,,0.00,Wunderground v.1.15,2013-04-27 02:50:00,
2013-04-26 21:55:00,57.6,45.9,30.20,SSW,205,6.0,6.0,65,0.00,,,0.00,Wunderground v.1.15,2013-04-27 02:55:00,
2013-04-26 22:00:00,57.5,45.8,30.20,SSW,208,5.0,7.0,65,0.00,,,0.00,Wunderground v.1.15,2013-04-27 03:00:00,
2013-04-26 22:10:00,57.2,45.9,30.21,SSE,157,4.0,9.0,66,0.00,,,0.00,Wunderground v.1.15,2013-04-27 03:10:00,
2013-04-26 22:15:00,57.0,45.7,30.21,SSW,204,5.0,9.0,66,0.00,,,0.00,Wunderground v.1.15,2013-04-27 03:15:00,
2013-04-26 22:20:00,56.8,46.0,30.21,South,180,5.0,5.0,67,0.00,,,0.00,Wunderground v.1.15,2013-04-27 03:20:00,
2013-04-26 22:25:00,56.6,45.8,30.21,SSW,198,4.0,14.0,67,0.00,,,0.00,Wunderground v.1.15,2013-04-27 03:25:00,
2013-04-26 22:30:00,56.4,46.0,30.20,South,190,5.0,5.0,68,0.00,,,0.00,Wunderground v.1.15,2013-04-27 03:30:00,
2013-04-26 22:34:00,56.3,45.9,30.20,SW,215,6.0,6.0,68,0.00,,,0.00,Wunderground v.1.15,2013-04-27 03:34:00,
2013-04-26 22:39:00,56.1,45.7,30.20,South,169,6.0,6.0,68,0.00,,,0.00,Wunderground v.1.15,2013-04-27 03:39:00,
2013-04-26 22:44:00,55.9,45.9,30.20,South,184,6.0,11.0,69,0.00,,,0.00,Wunderground v.1.15,2013-04-27 03:44:00,
2013-04-26 22:49:00,55.8,45.8,30.20,South,175,5.0,9.0,69,0.00,,,0.00,Wunderground v.1.15,2013-04-27 03:49:00,
2013-04-26 22:54:00,55.6,45.6,30.20,SSW,202,5.0,10.0,69,0.00,,,0.00,Wunderground v.1.15,2013-04-27 03:54:00,
2013-04-26 23:00:00,55.4,45.8,30.20,SW,218,4.0,7.0,70,0.00,,,0.00,Wunderground v.1.15,2013-04-27 04:00:00,
2013-04-26 23:04:00,55.2,46.0,30.20,WSW,245,5.0,7.0,71,0.00,,,0.00,Wunderground v.1.15,2013-04-27 04:04:00,
2013-04-26 23:09:00,55.0,45.8,30.20,SW,230,5.0,11.0,71,0.00,,,0.00,Wunderground v.1.15,2013-04-27 04:09:00,
2013-04-26 23:14:00,54.9,46.0,30.20,SSW,211,5.0,11.0,72,0.00,,,0.00,Wunderground v.1.15,2013-04-27 04:14:00,
2013-04-26 23:19:00,54.6,45.8,30.20,SW,214,6.0,6.0,72,0.00,,,0.00,Wunderground v.1.15,2013-04-27 04:19:00,
2013-04-26 23:24:00,54.5,45.7,30.20,SSW,210,5.0,6.0,72,0.00,,,0.00,Wunderground v.1.15,2013-04-27 04:24:00,
2013-04-26 23:30:00,54.3,45.8,30.20,SSW,211,5.0,5.0,73,0.00,,,0.00,Wunderground v.1.15,2013-04-27 04:30:00,
2013-04-26 23:35:00,54.2,45.7,30.21,SSW,203,5.0,5.0,73,0.00,,,0.00,Wunderground v.1.15,2013-04-27 04:35:00,
2013-04-26 23:39:00,54.0,45.9,30.21,SSW,197,4.0,4.0,74,0.00,,,0.00,Wunderground v.1.15,2013-04-27 04:39:00,
2013-04-26 23:50:00,53.6,45.9,30.21,SSW,207,4.0,5.0,75,0.00,,,0.00,Wunderground v.1.15,2013-04-27 04:50:00,
2013-04-26 23:55:00,53.5,45.8,30.21,SSW,197,4.0,6.0,75,0.00,,,0.00,Wunderground v.1.15,2013-04-27 04:55:00,